Temperature
13 13 14 14 17 18 19 20 20 20 20 19 19 20 21 21 21 20 15 15 15 15 15 15 16 16 16 16 16 16 16 16 16 16 16 16 16 16 16 16 16 16 15 15 15 15 15 15 15
12 13 13 15 18 19 19 20 19 19 18 17 17 18 19 18 16 15 14 15 15 15 15 15 15 16 16 16 16 16 16 16 16 16 16 16 16 16 16 16 15 15 15 15 15 15 15 15 15
12 12 14 16 17 19 19 19 19 18 16 17 17 17 18 17 15 14 14 15 14 15 15 15 15 15 16 16 16 16 16 16 16 15 15 15 15 15 15 15 15 15 15 15 15 15 15 15 15
12 12 14 16 17 18 19 19 18 17 16 16 16 17 15 14 14 14 14 14 14 14 15 15 15 15 15 15 15 15 15 15 15 15 15 15 15 15 15 15 15 15 15 15 15 15 15 15 15
11 13 15 15 16 17 18 17 17 18 17 16 16 17 15 14 14 14 14 14 14 14 14 15 15 15 15 15 15 15 15 15 15 15 15 15 15 15 15 15 15 15 15 15 15 15 15 15 15
12 14 15 16 16 16 16 16 16 17 17 16 16 16 15 14 14 14 14 14 14 14 14 15 15 15 15 15 15 15 15 15 15 15 15 15 15 15 15 15 15 15 15 15 15 15 15 15 15
13 14 15 16 16 16 16 15 16 17 17 16 16 16 14 13 13 14 14 14 14 14 14 14 14 14 14 15 15 15 15 15 15 15 15 15 15 15 15 15 15 15 15 14 14 14 14 14 14
11 14 14 15 15 15 15 14 15 16 16 14 14 16 15 13 13 13 14 14 14 14 14 14 14 14 14 14 14 15 15 15 15 15 15 15 15 14 14 14 14 14 14 14 14 14 14 14 14
11 13 14 15 15 15 14 14 13 13 14 13 13 14 13 13 13 13 13 13 13 13 14 14 14 14 14 14 14 14 14 14 14 14 14 14 14 14 14 14 14 14 14 14 14 14 14 14 14
11 13 14 14 15 15 14 14 13 14 14 14 13 12 12 13 13 13 13 13 13 13 13 13 14 14 14 14 14 14 14 14 14 14 14 14 14 14 14 14 14 14 14 14 14 14 14 13 13
11 13 13 13 13 13 13 13 13 14 15 15 14 12 12 12 12 13 13 13 13 13 13 13 13 13 14 14 14 14 14 14 14 14 14 14 14 14 14 14 13 14 13 13 13 13 13 13 13
11 12 12 12 11 12 13 13 13 14 14 13 13 13 12 12 12 12 12 12 12 12 13 13 13 13 13 13 13 14 14 13 13 14 14 14 14 13 13 13 13 13 13 13 13 13 13 12 12
11 11 11 11 11 11 12 12 13 12 12 12 12 12 12 12 12 12 12 12 12 12 12 13 13 13 13 13 13 13 13 13 13 13 13 13 13 13 13 13 13 13 13 13 13 12 12 12 12
11 11 11 11 11 11 12 12 12 12 11 11 11 11 11 12 12 12 12 12 12 12 12 12 13 13 13 13 13 13 13 13 13 13 13 13 13 13 13 13 13 12 12 12 12 12 12 12 12
10 12 12 11 11 11 12 12 12 11 11 11 11 11 11 11 11 11 12 12 12 12 12 12 12 13 13 13 13 13 13 13 13 13 13 13 13 13 12 12 12 12 12 12 12 12 12 12 12
11 12 12 12 11 11 12 13 13 11 11 11 11 11 11 11 11 11 11 12 12 12 12 12 12 12 12 12 12 12 12 12 12 12 12 12 12 12 12 12 12 12 12 12 12 11 11 11 11
12 12 12 12 12 12 13 13 12 11 11 11 11 11 11 11 11 11 11 11 11 11 12 12 12 12 12 12 12 12 12 12 12 12 12 12 12 12 12 12 12 12 11 11 11 11 11 11 11
12 12 12 12 12 12 13 13 12 11 11 11 11 11 10 10 10 11 11 11 11 11 11 11 12 12 12 12 12 12 12 11 11 11 11 11 11 11 11 11 11 11 11 11 11 11 11 11 11
12 12 12 12 11 12 13 13 12 11 11 11 11 11 10 10 10 10 11 11 11 11 11 11 11 11 11 11 11 11 11 11 11 11 11 11 11 11 11 11 11 11 11 11 11 11 11 10 10
12 12 12 11 11 12 12 12 13 12 11 11 11 11 11 10 10 10 10 11 11 11 11 11 11 11 11 11 11 11 11 10 10 10 10 10 10 10 10 10 10 10 10 10 10 10 10 10 10
11 12 12 11 11 11 12 13 13 12 11 10 10 10 10 10 10 10 10 11 11 11 11 11 10 10 10 11 11 10 10 10 10 10 10 10 10 10 10 10 10 10 10 10 10 10 9 9 9
11 10 10 11 12 12 12 13 14 13 12 12 11 10 10 10 10 10 10 10 11 11 10 10 10 10 10 10 10 10 10 10 10 10 10 10 9 9 9 9 9 9 9 9 9 9 9 9 8
10 10 10 11 11 12 12 12 14 12 12 12 12 11 10 10 10 10 10 11 11 10 10 10 10 10 10 10 10 10 10 9 9 9 9 9 9 9 9 9 9 9 9 9 9 9 9 8 8
9 10 11 11 12 12 11 12 13 13 13 12 12 10 10 9 10 10 10 10 10 10 10 10 10 10 10 9 9 9 9 9 9 9 9 9 9 9 9 9 9 8 8 8 8 8 8 8 8
10 12 12 12 12 13 10 11 12 12 11 11 11 10 9 9 9 10 10 10 10 10 10 10 9 9 9 9 9 9 9 9 9 9 8 8 8 8 8 8 8 8 8 8 8 8 7 7 7
10 11 12 12 13 13 10 11 13 11 10 9 9 9 9 9 9 9 10 10 10 10 10 10 9 9 9 9 9 9 9 8 8 8 8 8 8 8 8 8 8 8 7 7 7 7 7 7 7
10 10 10 11 10 11 12 12 12 11 10 9 9 9 9 8 9 9 9 9 9 9 9 9 9 9 9 9 9 9 8 8 8 8 8 8 8 8 7 7 7 7 7 7 7 7 6 6 6
9 9 10 10 11 12 13 12 12 11 11 10 10 9 9 8 8 9 9 9 9 9 9 9 9 9 9 9 9 8 8 8 8 8 8 7 7 7 7 7 7 7 7 6 6 6 6 6 6
9 9 9 10 10 12 12 13 12 11 11 10 10 9 8 8 8 9 9 9 9 9 9 9 9 9 9 8 8 8 8 8 8 7 7 7 7 7 7 7 7 6 6 6 6 6 6 6 6
8 9 10 10 10 10 11 12 11 10 10 9 9 8 8 8 8 9 9 9 8 8 8 8 8 8 8 8 8 8 8 7 7 7 7 7 7 7 6 6 6 6 6 6 6 5 5 5 5
Wind_Speed
6 5 2 2 5 7 14 10 7 7 7 4 3 4 5 4 3 2 4 5 7 8 9 10 9 9 10 9 9 9 9 9 8 8 8 8 8 7 6 6 6 6 6 7 6 6 6 6 6
4 2 2 3 8 12 14 11 10 8 5 4 3 3 4 3 2 4 4 4 6 8 9 9 9 10 10 10 9 9 9 8 8 8 7 7 7 7 6 6 5 5 6 6 5 5 5 5 5
2 2 3 4 9 15 13 10 9 4 5 4 3 2 2 3 3 3 3 5 6 7 8 9 9 10 10 10 9 8 8 8 7 7 7 7 7 6 6 6 5 5 5 5 5 4 4 3 3
2 3 3 7 14 13 10 7 7 7 5 4 4 3 2 1 2 2 4 5 6 7 8 10 9 10 10 9 8 7 8 8 7 7 6 6 6 6 6 6 5 5 5 4 4 3 3 3 2
2 3 6 9 13 10 8 5 8 9 7 5 5 4 3 1 1 3 5 6 6 6 7 9 9 9 10 10 9 8 7 7 7 7 6 6 6 6 6 5 5 4 4 4 3 3 2 2 2
4 4 8 12 12 8 7 6 8 8 6 6 6 5 3 2 3 4 5 6 6 6 7 9 9 9 10 10 9 8 7 7 7 7 6 5 6 6 5 5 4 4 4 3 2 2 2 1 1
4 6 9 11 11 9 7 6 7 7 7 6 5 6 4 4 4 5 5 5 5 6 6 7 8 9 9 9 8 8 7 6 7 7 6 6 5 5 5 4 4 4 3 3 2 2 2 1 1
3 4 9 10 11 10 6 4 4 6 5 2 4 5 5 5 4 5 5 5 5 5 5 6 6 7 7 7 8 8 7 7 7 7 7 6 5 5 4 4 4 3 3 2 2 2 1 1 0
3 5 9 10 10 8 6 4 2 1 3 2 2 2 2 6 5 6 5 5 5 4 3 4 5 6 6 6 7 7 6 6 6 6 6 4 3 2 3 4 4 3 3 2 2 1 1 1 2
3 6 9 7 6 5 6 5 3 4 4 3 2 1 4 7 7 8 7 6 5 4 3 3 4 5 5 5 5 5 4 4 3 4 4 3 2 2 2 3 3 2 2 1 1 0 1 3 2
3 6 6 5 5 4 5 3 4 6 5 5 5 5 6 7 7 7 6 5 5 5 4 2 3 4 5 4 4 3 3 3 3 3 3 2 2 1 1 1 0 0 0 1 0 2 2 2 2
3 3 4 4 3 3 3 3 3 4 3 2 3 7 8 7 7 7 6 5 5 5 4 3 3 4 4 4 3 3 3 3 2 3 2 2 2 1 1 1 2 1 1 2 2 2 2 3 3
3 2 2 1 1 1 2 2 2 2 3 0 3 6 7 7 7 6 5 4 5 4 4 3 2 4 4 4 3 3 3 3 3 2 2 2 1 1 1 1 1 2 2 2 2 3 3 3 3
2 2 1 1 1 1 1 1 1 2 1 3 4 5 6 6 6 6 5 5 4 4 3 3 3 3 4 3 3 3 3 3 3 3 3 3 2 1 1 1 1 2 2 3 3 3 2 2 2
2 3 2 1 1 1 1 1 2 2 1 3 4 5 5 5 4 5 5 5 4 4 4 3 3 3 4 4 3 3 3 3 3 3 3 3 2 2 1 1 1 2 3 3 3 2 2 2 2
3 3 2 1 1 1 2 4 1 0 2 3 3 4 5 4 4 4 4 4 4 4 4 4 3 3 3 4 3 3 3 3 3 3 3 3 3 3 2 1 2 3 3 3 2 2 2 2 3
2 3 3 0 2 1 3 4 1 1 3 3 3 4 5 4 3 3 3 4 4 5 4 4 3 2 3 4 4 4 3 3 3 3 3 3 3 3 2 2 2 3 2 2 2 2 2 3 3
3 3 2 1 2 1 3 3 0 1 3 3 4 4 4 4 4 3 4 4 4 4 4 3 3 2 3 3 3 3 3 3 3 3 3 4 4 3 3 2 3 3 2 2 3 3 3 2 3
2 2 1 1 3 2 3 3 1 1 3 4 5 5 4 4 3 3 4 4 4 4 4 3 2 2 3 2 1 1 1 1 2 2 3 3 4 4 3 3 3 3 2 3 3 3 3 2 3
2 2 1 2 4 1 2 3 2 1 3 4 5 5 5 5 4 4 4 4 4 4 4 3 3 3 2 2 1 1 1 1 1 1 2 3 3 3 3 3 2 3 3 3 3 3 2 2 2
1 1 0 1 2 1 1 3 3 1 2 2 3 4 5 5 5 5 5 4 4 3 3 3 3 2 2 2 2 1 1 1 1 1 0 1 2 2 2 2 2 2 3 3 3 3 3 3 2
0 2 1 1 1 0 1 2 3 3 3 3 4 4 4 4 5 5 5 4 4 3 3 3 3 3 3 2 2 1 1 0 0 0 0 0 1 1 1 2 2 2 2 2 3 3 3 3 3
1 2 0 1 1 1 0 2 2 2 4 4 4 4 4 4 4 4 4 4 4 3 4 4 4 3 3 2 2 1 1 0 0 0 0 0 0 0 1 1 1 2 2 2 3 3 3 3 3
0 1 1 1 1 2 1 2 3 3 4 3 3 3 3 3 3 3 3 3 3 3 3 4 4 3 3 3 2 2 1 1 0 1 1 1 1 1 1 2 2 2 2 3 3 3 3 3 3
2 1 0 0 1 2 0 3 4 1 1 2 3 3 2 2 3 3 3 3 3 3 3 4 4 4 3 3 3 2 2 2 2 2 2 2 2 2 2 2 2 2 2 3 3 3 3 3 4
1 2 1 2 2 2 2 4 2 2 1 1 1 1 2 2 2 2 2 3 3 3 3 4 4 4 4 4 3 3 3 2 2 2 2 3 2 3 3 3 3 3 3 3 3 3 3 3 4
0 1 1 0 1 3 3 4 3 1 1 1 1 2 2 2 2 2 2 2 3 3 3 3 3 3 4 4 4 4 4 3 3 3 3 3 3 3 3 4 3 3 4 4 4 3 4 4 4
2 2 1 1 1 3 3 4 2 2 3 2 2 2 2 2 2 1 1 1 2 2 2 2 3 3 3 4 4 4 4 4 4 4 5 5 4 4 4 4 4 4 4 4 4 4 4 5 5
2 2 1 1 2 3 3 2 1 2 3 3 3 2 2 2 1 1 1 1 1 1 1 2 2 3 3 3 4 5 5 5 5 5 5 5 5 5 5 5 5 6 5 5 5 5 5 6 5
3 3 3 2 3 3 4 3 2 1 2 3 3 2 2 2 1 1 1 1 1 1 2 2 2 3 3 4 4 5 5 5 6 6 6 6 6 6 6 6 7 7 6 6 6 7 6 7 7
Wind_Direction
315 308 289 228 208 217 225 213 208 193 188 187 177 201 201 196 205 115 96 131 136 144 144 148 145 143 139 135 137 138 137 134 135 135 133 131 130 129 127 126 121 117 113 109 106 100 96 94 93
308 290 227 217 219 218 219 209 203 195 178 163 174 188 190 183 66 96 125 126 138 144 146 143 141 144 138 135 138 142 140 137 135 137 135 133 131 126 123 124 119 117 113 110 106 103 101 100 99
274 259 210 206 221 223 213 197 196 178 173 183 174 190 191 158 128 122 121 138 142 144 146 136 137 144 140 136 136 142 142 138 132 134 136 134 131 127 122 120 113 111 111 111 112 107 106 104 112
217 190 206 218 220 224 222 198 191 172 180 190 186 165 148 93 118 120 132 144 142 145 144 137 133 138 139 135 130 130 136 135 128 129 133 133 129 122 116 111 111 109 106 105 106 107 106 107 115
208 198 201 217 224 220 223 209 192 194 189 182 188 184 168 155 112 131 139 140 131 138 136 140 132 129 131 130 127 120 123 126 123 118 123 129 125 117 109 109 111 113 111 107 103 101 106 108 117
188 202 210 215 215 213 216 210 197 203 196 189 186 182 170 154 144 139 133 133 124 129 132 135 127 125 127 126 123 117 115 121 121 111 105 114 117 113 110 109 111 112 111 108 101 95 97 115 122
205 201 215 217 213 208 205 205 208 204 199 192 185 178 165 163 145 139 129 121 113 117 132 137 139 132 126 122 119 115 107 113 119 117 103 95 106 110 108 105 106 107 101 97 92 85 85 91 109
226 201 211 216 213 210 192 196 226 220 200 174 198 191 182 167 149 137 125 117 107 106 121 134 140 137 135 132 118 115 107 107 113 112 109 105 104 111 110 107 92 91 93 90 85 75 60 56 82
221 215 211 210 214 209 196 208 236 260 179 198 219 255 173 150 161 143 131 120 110 103 119 134 139 133 128 133 128 124 119 110 126 122 117 131 124 109 123 87 79 75 73 77 74 61 33 273 204
216 217 216 215 226 215 211 214 199 188 188 200 187 121 138 160 166 157 156 151 133 113 98 136 141 136 125 123 133 129 129 129 120 124 129 127 108 82 69 105 91 83 72 109 92 129 227 256 258
218 226 217 217 240 224 211 206 200 201 214 221 204 178 163 170 168 163 162 153 136 123 105 93 129 129 124 115 119 122 126 122 111 102 113 115 103 90 62 45 119 157 227 292 278 240 274 292 298
205 245 228 220 253 228 213 192 212 229 247 299 212 170 166 172 172 165 159 143 131 122 114 101 105 118 118 116 112 118 112 104 98 90 81 92 84 64 47 25 1 335 322 321 311 315 310 300 295
207 229 258 254 288 248 173 202 236 278 313 16 128 153 168 171 169 157 149 140 133 122 114 100 100 113 110 113 111 104 108 97 94 86 74 67 72 77 42 20 10 353 336 324 313 302 312 306 307
199 194 211 306 264 264 169 300 256 315 21 108 135 155 159 160 159 148 148 150 140 130 120 104 97 105 106 105 103 91 100 94 80 76 70 62 54 51 31 12 1 352 338 321 309 308 307 303 303
199 162 119 34 292 300 256 278 275 312 114 123 143 150 146 150 146 151 157 154 146 136 126 111 93 98 106 98 92 86 90 90 80 66 64 62 51 38 14 5 356 344 334 327 315 316 304 299 295
192 181 177 1 345 287 223 221 254 74 161 152 152 153 149 148 150 151 150 149 146 138 131 113 99 109 112 102 98 87 87 92 83 73 66 63 53 42 24 5 356 343 334 332 327 315 304 300 298
158 192 200 105 27 232 205 223 230 122 165 169 169 161 156 152 151 151 153 152 151 146 139 126 111 121 111 102 98 86 94 89 80 71 59 55 53 43 36 12 355 343 337 339 337 321 311 303 305
184 196 197 169 9 228 197 211 181 141 174 185 180 173 167 170 170 160 157 153 147 139 133 128 115 119 114 103 97 92 96 92 82 71 56 49 48 41 33 19 1 351 340 340 338 328 318 306 304
176 178 162 353 346 280 215 224 237 172 186 196 192 188 184 181 166 157 155 152 150 139 129 123 113 117 119 113 110 125 116 113 99 74 56 49 42 35 32 20 7 358 346 336 333 330 315 320 318
146 144 73 17 353 305 224 244 246 228 220 219 208 202 198 183 169 164 163 161 163 150 143 139 124 107 107 108 96 79 110 135 104 78 59 45 42 31 20 17 7 360 345 337 340 338 320 319 331
69 195 263 339 351 26 261 226 213 211 220 234 230 220 214 204 192 180 175 172 167 162 159 146 138 126 117 109 115 121 131 141 135 120 71 32 35 34 16 6 356 351 345 340 334 326 311 300 300
121 333 278 215 206 193 306 237 212 218 217 224 218 211 211 207 204 194 188 181 180 175 162 157 155 147 134 137 149 146 145 104 6 327 319 13 28 26 17 352 343 337 329 325 327 315 300 290 281
38 333 304 200 182 194 242 243 227 184 226 222 216 212 208 201 198 198 198 195 183 169 161 162 156 151 152 159 155 154 145 115 64 331 347 331 354 9 356 330 328 321 309 308 308 311 301 292 287
258 213 118 132 212 238 276 255 241 204 229 223 206 196 192 192 190 189 185 176 167 161 161 164 164 167 172 177 174 174 183 188 212 277 305 309 308 302 312 302 305 305 299 298 300 297 292 288 287
342 275 354 207 248 250 40 252 253 277 272 251 228 206 193 182 179 172 170 167 164 167 170 174 178 184 188 191 197 197 200 220 247 266 276 286 289 288 292 281 282 286 285 287 289 287 282 278 277
339 307 285 265 262 280 231 245 262 28 343 304 246 197 174 164 160 163 173 177 176 174 175 178 188 199 200 203 211 216 210 218 244 254 260 262 265 267 276 271 270 275 277 278 278 278 278 277 272
168 136 350 345 291 266 246 269 278 171 167 160 157 150 155 155 154 158 167 182 184 182 185 189 198 210 213 216 218 223 223 227 237 245 251 255 258 263 264 265 270 271 269 270 273 271 274 276 275
359 139 182 217 268 269 271 257 249 211 192 179 173 167 155 145 149 160 172 184 188 194 197 200 215 230 233 230 229 232 234 234 239 242 243 246 251 251 255 260 263 265 265 264 263 266 266 268 272
156 169 190 187 279 272 279 264 189 226 208 201 193 185 182 179 180 181 181 185 186 191 205 219 233 245 248 245 242 240 240 239 240 242 248 251 254 252 253 254 254 255 257 257 256 258 261 262 267
241 223 203 241 243 246 272 277 104 230 253 229 212 202 215 228 237 224 182 176 187 212 232 246 253 256 260 259 254 251 249 245 245 248 249 249 251 250 249 251 250 251 253 253 253 256 256 257 261
Height
1518 1519 1521 1524 1523 1518 1511 1509 1510 1512 1514 1517 1518 1518 1516 1517 1519 1524 1525 1524 1526 1528 1530 1531 1533 1535 1536 1537 1538 1538 1539 1540 1540 1541 1541 1541 1541 1541 1541 1541 1541 1541 1541 1541 1541 1541 1541 1540 1540
1518 1519 1522 1522 1516 1512 1507 1508 1511 1513 1516 1519 1519 1519 1519 1520 1522 1523 1523 1524 1526 1528 1530 1531 1533 1534 1536 1536 1537 1538 1539 1540 1540 1541 1541 1541 1541 1541 1542 1542 1542 1541 1541 1541 1541 1541 1541 1541 1540
1517 1519 1522 1518 1511 1505 1504 1508 1511 1516 1518 1518 1519 1520 1520 1521 1522 1523 1523 1524 1527 1529 1530 1531 1533 1534 1535 1536 1537 1538 1539 1539 1540 1540 1541 1541 1541 1541 1541 1541 1541 1541 1541 1541 1541 1541 1540 1540 1540
1517 1520 1520 1516 1509 1506 1505 1508 1512 1515 1517 1518 1519 1519 1521 1522 1522 1522 1523 1525 1527 1528 1530 1531 1532 1533 1535 1536 1537 1538 1538 1539 1540 1540 1541 1541 1541 1541 1541 1541 1541 1541 1541 1541 1541 1540 1540 1540 1540
1517 1518 1515 1511 1508 1508 1509 1511 1513 1513 1515 1517 1518 1518 1520 1521 1520 1522 1523 1525 1526 1528 1529 1531 1532 1533 1535 1535 1537 1537 1538 1539 1539 1539 1540 1540 1541 1541 1541 1541 1541 1541 1540 1540 1540 1540 1539 1539 1539
1517 1514 1510 1507 1507 1510 1511 1513 1513 1512 1514 1516 1517 1517 1519 1520 1521 1522 1523 1525 1526 1527 1529 1530 1531 1533 1534 1535 1536 1537 1537 1538 1538 1539 1539 1539 1540 1540 1540 1540 1540 1540 1540 1539 1539 1539 1539 1538 1538
1515 1511 1507 1505 1507 1509 1511 1513 1513 1512 1513 1515 1516 1516 1518 1520 1520 1521 1523 1524 1525 1527 1528 1530 1531 1532 1533 1534 1535 1536 1537 1537 1538 1538 1538 1539 1539 1539 1539 1539 1539 1539 1538 1538 1538 1538 1537 1537 1537
1514 1512 1508 1506 1506 1508 1511 1513 1513 1513 1512 1514 1516 1515 1516 1518 1519 1521 1522 1524 1525 1526 1527 1529 1530 1531 1532 1533 1534 1535 1536 1536 1537 1537 1538 1538 1538 1538 1538 1538 1538 1537 1537 1537 1537 1536 1536 1536 1535
1514 1512 1506 1505 1506 1507 1511 1512 1513 1513 1513 1513 1514 1515 1515 1516 1518 1520 1522 1523 1524 1525 1527 1528 1529 1530 1531 1532 1533 1534 1535 1535 1536 1536 1537 1537 1537 1537 1537 1537 1536 1536 1536 1535 1535 1535 1534 1534 1534
1513 1508 1506 1507 1508 1508 1510 1510 1511 1512 1511 1512 1513 1513 1514 1516 1517 1518 1520 1522 1523 1524 1526 1527 1528 1529 1530 1531 1532 1533 1534 1535 1535 1535 1535 1536 1536 1535 1535 1535 1535 1535 1534 1534 1534 1533 1533 1533 1532
1512 1509 1509 1510 1510 1510 1510 1510 1510 1510 1509 1510 1511 1512 1513 1515 1516 1518 1519 1521 1522 1523 1524 1525 1527 1528 1529 1530 1531 1532 1533 1533 1533 1534 1534 1534 1534 1534 1534 1533 1533 1533 1533 1533 1532 1532 1531 1531 1530
1513 1512 1511 1510 1511 1510 1509 1509 1510 1510 1510 1510 1510 1511 1512 1513 1515 1516 1518 1519 1521 1522 1524 1525 1526 1527 1528 1529 1530 1531 1531 1532 1532 1532 1532 1532 1533 1532 1532 1532 1531 1531 1531 1531 1530 1530 1529 1529 1528
1512 1512 1512 1511 1511 1510 1510 1510 1510 1510 1509 1509 1509 1511 1512 1513 1514 1516 1517 1519 1521 1522 1523 1523 1525 1526 1527 1528 1529 1529 1530 1530 1531 1531 1531 1531 1531 1531 1531 1530 1530 1530 1529 1529 1528 1528 1528 1527 1527
1512 1512 1511 1511 1511 1510 1510 1510 1510 1509 1509 1509 1510 1511 1512 1513 1514 1514 1517 1519 1520 1521 1522 1523 1524 1524 1525 1526 1527 1528 1529 1529 1529 1529 1529 1529 1529 1529 1529 1529 1528 1528 1528 1527 1527 1526 1525 1525 1524
1513 1511 1510 1511 1510 1511 1510 1509 1509 1510 1510 1510 1510 1511 1512 1513 1513 1514 1516 1518 1519 1520 1522 1522 1523 1523 1524 1524 1525 1526 1527 1527 1527 1528 1528 1528 1528 1527 1527 1527 1527 1526 1525 1525 1525 1524 1523 1523 1522
1511 1509 1509 1511 1511 1511 1512 1509 1510 1511 1510 1510 1511 1511 1512 1513 1514 1515 1516 1518 1519 1520 1521 1522 1522 1522 1523 1523 1524 1525 1525 1526 1526 1526 1526 1526 1526 1525 1526 1525 1525 1524 1524 1523 1523 1522 1522 1521 1520
1509 1508 1508 1510 1511 1510 1510 1509 1511 1511 1510 1511 1511 1511 1512 1513 1514 1515 1516 1517 1518 1519 1520 1521 1521 1522 1522 1522 1523 1523 1524 1524 1525 1525 1525 1525 1524 1524 1524 1524 1524 1523 1522 1522 1521 1521 1520 1519 1518
1510 1508 1508 1508 1511 1510 1508 1507 1509 1511 1510 1510 1511 1512 1512 1513 1514 1514 1515 1516 1518 1518 1519 1520 1520 1520 1521 1521 1522 1522 1523 1523 1523 1523 1523 1523 1523 1523 1523 1522 1522 1522 1521 1520 1519 1519 1518 1517 1516
1510 1510 1509 1511 1513 1511 1507 1507 1508 1510 1510 1510 1511 1511 1512 1513 1514 1514 1515 1516 1517 1517 1517 1519 1520 1520 1519 1520 1521 1521 1521 1522 1522 1522 1522 1522 1522 1521 1521 1521 1520 1520 1519 1519 1518 1517 1516 1515 1514
1510 1509 1510 1512 1513 1511 1509 1507 1507 1509 1510 1510 1510 1511 1511 1512 1513 1513 1514 1515 1516 1517 1518 1519 1519 1518 1519 1520 1521 1521 1520 1521 1520 1520 1520 1520 1520 1520 1520 1519 1518 1518 1517 1517 1516 1515 1514 1513 1512
1512 1511 1511 1513 1514 1512 1509 1505 1506 1507 1509 1510 1510 1510 1511 1511 1512 1513 1514 1515 1515 1516 1517 1517 1518 1518 1519 1519 1520 1520 1520 1519 1519 1519 1519 1518 1518 1518 1518 1518 1517 1516 1515 1514 1513 1513 1512 1511 1510
1512 1515 1514 1514 1510 1510 1511 1507 1502 1504 1506 1507 1508 1508 1509 1510 1511 1512 1513 1514 1515 1515 1516 1516 1517 1518 1518 1519 1519 1519 1518 1517 1517 1518 1517 1517 1517 1517 1516 1516 1515 1514 1513 1512 1511 1510 1509 1509 1508
1516 1516 1514 1512 1510 1510 1510 1508 1500 1504 1503 1503 1505 1506 1507 1508 1509 1510 1511 1512 1513 1514 1515 1516 1516 1516 1517 1518 1518 1518 1517 1516 1516 1516 1515 1516 1515 1515 1514 1514 1513 1512 1511 1510 1509 1508 1507 1506 1505
1518 1516 1514 1512 1509 1510 1512 1508 1500 1500 1500 1501 1504 1505 1506 1507 1508 1508 1510 1510 1511 1512 1513 1514 1515 1515 1516 1516 1516 1516 1515 1515 1514 1514 1513 1513 1513 1512 1512 1511 1510 1510 1509 1508 1507 1505 1504 1503 1502
1517 1513 1511 1510 1509 1506 1515 1511 1502 1499 1502 1503 1504 1504 1505 1506 1506 1507 1508 1508 1509 1510 1511 1512 1513 1514 1514 1514 1514 1514 1513 1513 1513 1512 1512 1511 1510 1510 1509 1509 1508 1507 1506 1505 1504 1503 1502 1501 1500
1518 1516 1515 1512 1507 1503 1514 1507 1499 1502 1503 1504 1504 1504 1504 1505 1505 1505 1506 1507 1507 1508 1509 1510 1511 1512 1512 1512 1512 1512 1512 1511 1510 1510 1509 1509 1508 1507 1507 1506 1505 1504 1503 1502 1501 1500 1499 1498 1497
1518 1517 1520 1517 1518 1513 1502 1502 1499 1501 1502 1503 1503 1503 1503 1503 1504 1504 1505 1505 1506 1506 1507 1508 1509 1509 1510 1510 1510 1510 1509 1508 1508 1507 1507 1506 1505 1505 1504 1503 1502 1501 1500 1499 1498 1497 1496 1494 1493
1523 1521 1519 1517 1513 1506 1500 1500 1496 1498 1499 1501 1502 1502 1503 1503 1503 1504 1504 1504 1505 1505 1506 1506 1506 1506 1507 1507 1507 1507 1506 1506 1505 1504 1504 1503 1502 1501 1501 1500 1499 1498 1497 1496 1495 1494 1492 1491 1490
1523 1522 1519 1517 1515 1509 1502 1495 1496 1496 1498 1499 1500 1501 1502 1502 1502 1503 1503 1504 1504 1504 1504 1504 1504 1504 1504 1504 1504 1504 1503 1503 1502 1501 1501 1500 1499 1498 1497 1496 1495 1494 1493 1492 1491 1490 1489 1488 1486
1522 1519 1518 1516 1515 1515 1507 1499 1497 1498 1499 1500 1500 1501 1501 1501 1501 1501 1502 1502 1502 1502 1502 1502 1502 1501 1501 1501 1500 1500 1500 1499 1498 1498 1497 1496 1495 1494 1493 1492 1491 1490 1489 1488 1487 1486 1485 1483 1482